Time,TemperatureF,DewpointF,PressureIn,WindDirection,WindDirectionDegrees,WindSpeedMPH,WindSpeedGustMPH,Humidity,HourlyPrecipIn,Conditions,Clouds,dailyrainin,SoftwareType,DateUTC
2013-01-20 00:02:00,47.4,40.9,30.22,South,186,3.0,3.0,78,0.00,,,0.00,Wunderground v.1.15,2013-01-20 06:02:00,
2013-01-20 00:12:00,48.1,41.2,30.22,South,184,4.0,4.0,77,0.00,,,0.00,Wunderground v.1.15,2013-01-20 06:12:00,
2013-01-20 00:22:00,47.8,40.9,30.21,South,184,3.0,4.0,77,0.00,,,0.00,Wunderground v.1.15,2013-01-20 06:22:00,
2013-01-20 00:27:00,47.4,40.6,30.21,South,184,2.0,2.0,77,0.00,,,0.00,Wunderground v.1.15,2013-01-20 06:27:00,
2013-01-20 00:37:00,46.8,40.6,30.21,South,184,2.0,2.0,79,0.00,,,0.00,Wunderground v.1.15,2013-01-20 06:37:00,
2013-01-20 00:47:00,46.9,40.7,30.21,South,189,1.0,2.0,79,0.00,,,0.00,Wunderground v.1.15,2013-01-20 06:47:00,
2013-01-20 00:57:00,47.0,40.8,30.21,SSW,193,2.0,3.0,79,0.00,,,0.00,Wunderground v.1.15,2013-01-20 06:57:00,
2013-01-20 01:07:00,48.3,41.1,30.21,SSW,193,4.0,4.0,76,0.00,,,0.00,Wunderground v.1.15,2013-01-20 07:07:00,
2013-01-20 01:17:00,47.3,40.5,30.21,South,182,3.0,3.0,77,0.00,,,0.00,Wunderground v.1.15,2013-01-20 07:17:00,
2013-01-20 01:22:00,47.0,40.5,30.21,South,182,2.0,3.0,78,0.00,,,0.00,Wunderground v.1.15,2013-01-20 07:22:00,
2013-01-20 01:32:00,46.9,40.4,30.21,ESE,118,3.0,6.0,78,0.00,,,0.00,Wunderground v.1.15,2013-01-20 07:32:00,
2013-01-20 01:42:00,46.1,40.3,30.21,SE,138,5.0,6.0,80,0.00,,,0.00,Wunderground v.1.15,2013-01-20 07:42:00,
2013-01-20 01:52:00,46.1,40.6,30.21,South,187,6.0,6.0,81,0.00,,,0.00,Wunderground v.1.15,2013-01-20 07:52:00,
2013-01-20 02:02:00,46.4,40.2,30.21,SSW,205,7.0,7.0,79,0.00,,,0.00,Wunderground v.1.15,2013-01-20 08:02:00,
2013-01-20 02:12:00,46.0,40.2,30.21,South,175,5.0,7.0,80,0.00,,,0.00,Wunderground v.1.15,2013-01-20 08:12:00,
2013-01-20 02:22:00,45.2,40.0,30.21,SE,139,4.0,4.0,82,0.00,,,0.00,Wunderground v.1.15,2013-01-20 08:22:00,
2013-01-20 02:27:00,45.4,40.2,30.21,South,176,4.0,4.0,82,0.00,,,0.00,Wunderground v.1.15,2013-01-20 08:27:00,
2013-01-20 02:37:00,46.4,40.2,30.21,SSW,200,4.0,5.0,79,0.00,,,0.00,Wunderground v.1.15,2013-01-20 08:37:00,
2013-01-20 02:47:00,46.5,39.3,30.21,SE,127,4.0,4.0,76,0.00,,,0.00,Wunderground v.1.15,2013-01-20 08:47:00,
2013-01-20 02:52:00,45.9,40.1,30.21,SE,144,3.0,4.0,80,0.00,,,0.00,Wunderground v.1.15,2013-01-20 08:52:00,
2013-01-20 03:02:00,46.1,40.3,30.20,SE,143,3.0,3.0,80,0.00,,,0.00,Wunderground v.1.15,2013-01-20 09:02:00,
2013-01-20 03:12:00,47.3,40.8,30.20,South,184,2.0,4.0,78,0.00,,,0.00,Wunderground v.1.15,2013-01-20 09:12:00,
2013-01-20 03:22:00,44.5,39.0,30.21,SE,132,5.0,6.0,81,0.00,,,0.00,Wunderground v.1.15,2013-01-20 09:22:00,
2013-01-20 03:32:00,44.3,39.5,30.20,SSE,149,4.0,5.0,83,0.00,,,0.00,Wunderground v.1.15,2013-01-20 09:32:00,
2013-01-20 03:42:00,44.8,39.6,30.20,SSE,149,3.0,3.0,82,0.00,,,0.00,Wunderground v.1.15,2013-01-20 09:42:00,
2013-01-20 03:52:00,44.9,39.7,30.20,SSE,149,2.0,3.0,82,0.00,,,0.00,Wunderground v.1.15,2013-01-20 09:52:00,
2013-01-20 04:02:00,44.6,39.4,30.20,SE,136,3.0,5.0,82,0.00,,,0.00,Wunderground v.1.15,2013-01-20 10:02:00,
2013-01-20 04:12:00,45.0,40.1,30.20,South,176,5.0,5.0,83,0.00,,,0.00,Wunderground v.1.15,2013-01-20 10:12:00,
2013-01-20 04:17:00,45.7,40.2,30.20,South,182,5.0,5.0,81,0.00,,,0.00,Wunderground v.1.15,2013-01-20 10:17:00,
2013-01-20 04:27:00,45.4,39.9,30.19,South,180,5.0,5.0,81,0.00,,,0.00,Wunderground v.1.15,2013-01-20 10:27:00,
2013-01-20 04:37:00,45.3,40.1,30.20,South,184,5.0,5.0,82,0.00,,,0.00,Wunderground v.1.15,2013-01-20 10:37:00,
2013-01-20 04:47:00,45.1,39.9,30.19,South,184,4.0,4.0,82,0.00,,,0.00,Wunderground v.1.15,2013-01-20 10:47:00,
2013-01-20 04:57:00,45.0,39.8,30.19,South,184,3.0,3.0,82,0.00,,,0.00,Wunderground v.1.15,2013-01-20 10:57:00,
2013-01-20 05:07:00,44.1,39.3,30.18,SSE,161,4.0,4.0,83,0.00,,,0.00,Wunderground v.1.15,2013-01-20 11:07:00,
2013-01-20 05:17:00,44.2,40.0,30.18,South,170,4.0,4.0,85,0.00,,,0.00,Wunderground v.1.15,2013-01-20 11:17:00,
2013-01-20 05:27:00,44.2,39.7,30.18,South,187,4.0,5.0,84,0.00,,,0.00,Wunderground v.1.15,2013-01-20 11:27:00,
2013-01-20 05:37:00,43.3,38.8,30.18,South,182,5.0,5.0,84,0.00,,,0.00,Wunderground v.1.15,2013-01-20 11:37:00,
2013-01-20 05:42:00,42.6,38.4,30.18,SE,142,4.0,5.0,85,0.00,,,0.00,Wunderground v.1.15,2013-01-20 11:42:00,
2013-01-20 05:52:00,41.6,38.0,30.18,SW,215,1.0,3.0,87,0.00,,,0.00,Wunderground v.1.15,2013-01-20 11:52:00,
2013-01-20 06:02:00,42.4,38.8,30.18,WSW,246,2.0,3.0,87,0.00,,,0.00,Wunderground v.1.15,2013-01-20 12:02:00,
2013-01-20 06:07:00,42.4,38.8,30.18,WSW,239,2.0,3.0,87,0.00,,,0.00,Wunderground v.1.15,2013-01-20 12:07:00,
2013-01-20 06:17:00,43.5,39.6,30.18,SSW,205,2.0,3.0,86,0.00,,,0.00,Wunderground v.1.15,2013-01-20 12:17:00,
2013-01-20 06:27:00,43.8,39.9,30.18,SW,228,3.0,3.0,86,0.00,,,0.00,Wunderground v.1.15,2013-01-20 12:27:00,
2013-01-20 06:32:00,44.4,40.2,30.17,SW,228,3.0,3.0,85,0.00,,,0.00,Wunderground v.1.15,2013-01-20 12:32:00,
2013-01-20 06:42:00,45.1,39.9,30.17,WSW,245,2.0,3.0,82,0.00,,,0.00,Wunderground v.1.15,2013-01-20 12:42:00,
2013-01-20 06:52:00,42.2,37.4,30.18,WSW,245,1.0,3.0,83,0.00,,,0.00,Wunderground v.1.15,2013-01-20 12:52:00,
2013-01-20 06:58:00,41.4,37.8,30.19,WSW,245,1.0,1.0,87,0.00,,,0.00,Wunderground v.1.15,2013-01-20 12:58:00,
2013-01-20 07:07:00,41.9,38.9,30.20,WSW,254,1.0,4.0,89,0.00,,,0.00,Wunderground v.1.15,2013-01-20 13:07:00,
2013-01-20 07:17:00,43.9,39.4,30.20,West,267,4.0,4.0,84,0.00,,,0.00,Wunderground v.1.15,2013-01-20 13:17:00,
2013-01-20 07:22:00,43.1,38.0,30.21,West,260,3.0,4.0,82,0.00,,,0.00,Wunderground v.1.15,2013-01-20 13:22:00,
2013-01-20 07:32:00,42.2,38.6,30.22,SSE,147,2.0,3.0,87,0.00,,,0.00,Wunderground v.1.15,2013-01-20 13:32:00,
2013-01-20 07:42:00,44.4,39.6,30.22,WSW,241,3.0,5.0,83,0.00,,,0.00,Wunderground v.1.15,2013-01-20 13:42:00,
2013-01-20 07:47:00,45.4,39.6,30.22,WSW,243,5.0,6.0,80,0.00,,,0.00,Wunderground v.1.15,2013-01-20 13:47:00,
2013-01-20 07:57:00,46.1,39.9,30.22,SW,230,5.0,5.0,79,0.00,,,0.00,Wunderground v.1.15,2013-01-20 13:57:00,
2013-01-20 08:07:00,45.8,39.7,30.22,SW,225,2.0,2.0,79,0.00,,,0.00,Wunderground v.1.15,2013-01-20 14:07:00,
2013-01-20 08:12:00,45.9,40.4,30.22,SW,224,1.0,2.0,81,0.00,,,0.00,Wunderground v.1.15,2013-01-20 14:12:00,
2013-01-20 08:22:00,47.5,41.3,30.23,SW,221,0.0,2.0,79,0.00,,,0.00,Wunderground v.1.15,2013-01-20 14:22:00,
2013-01-20 08:32:00,47.2,42.0,30.23,SSE,162,3.0,4.0,82,0.00,,,0.00,Wunderground v.1.15,2013-01-20 14:32:00,
2013-01-20 08:37:00,47.7,42.2,30.23,SSE,161,4.0,5.0,81,0.00,,,0.00,Wunderground v.1.15,2013-01-20 14:37:00,
2013-01-20 08:47:00,46.8,41.0,30.23,SE,145,4.0,4.0,80,0.00,,,0.00,Wunderground v.1.15,2013-01-20 14:47:00,
2013-01-20 08:58:00,46.7,41.2,30.23,South,186,3.0,3.0,81,0.00,,,0.00,Wunderground v.1.15,2013-01-20 14:58:00,
2013-01-20 09:07:00,47.8,41.6,30.23,SSE,164,2.0,2.0,79,0.00,,,0.00,Wunderground v.1.15,2013-01-20 15:07:00,
2013-01-20 09:17:00,49.5,42.6,30.23,SSE,165,3.0,3.0,77,0.00,,,0.00,Wunderground v.1.15,2013-01-20 15:17:00,
2013-01-20 09:27:00,51.0,42.3,30.23,SSW,210,6.0,6.0,72,0.00,,,0.00,Wunderground v.1.15,2013-01-20 15:27:00,
2013-01-20 09:37:00,53.0,42.7,30.23,SSW,210,8.0,9.0,68,0.00,,,0.00,Wunderground v.1.15,2013-01-20 15:37:00,
2013-01-20 09:47:00,54.5,43.8,30.23,SW,218,6.0,6.0,67,0.00,,,0.00,Wunderground v.1.15,2013-01-20 15:47:00,
2013-01-20 09:57:00,55.8,43.0,30.24,SW,232,8.0,9.0,62,0.00,,,0.00,Wunderground v.1.15,2013-01-20 15:57:00,
2013-01-20 10:02:00,56.2,43.3,30.24,SW,215,8.0,9.0,62,0.00,,,0.00,Wunderground v.1.15,2013-01-20 16:02:00,
2013-01-20 10:12:00,56.9,43.6,30.23,SSW,210,7.0,8.0,61,0.00,,,0.00,Wunderground v.1.15,2013-01-20 16:12:00,
2013-01-20 10:22:00,59.1,43.9,30.24,SW,222,9.0,9.0,57,0.00,,,0.00,Wunderground v.1.15,2013-01-20 16:22:00,
2013-01-20 10:27:00,59.7,43.0,30.24,SW,224,11.0,11.0,54,0.00,,,0.00,Wunderground v.1.15,2013-01-20 16:27:00,
2013-01-20 10:37:00,60.9,43.1,30.24,SW,217,10.0,10.0,52,0.00,,,0.00,Wunderground v.1.15,2013-01-20 16:37:00,
2013-01-20 10:47:00,61.2,42.9,30.24,SW,223,11.0,11.0,51,0.00,,,0.00,Wunderground v.1.15,2013-01-20 16:47:00,
2013-01-20 10:57:00,61.8,43.5,30.23,SSW,205,11.0,11.0,51,0.00,,,0.00,Wunderground v.1.15,2013-01-20 16:57:00,
2013-01-20 11:07:00,62.3,43.4,30.23,SSW,213,11.0,11.0,50,0.00,,,0.00,Wunderground v.1.15,2013-01-20 17:07:00,
2013-01-20 11:12:00,62.9,42.9,30.23,SSW,213,10.0,11.0,48,0.00,,,0.00,Wunderground v.1.15,2013-01-20 17:12:00,
2013-01-20 11:22:00,63.3,43.3,30.23,SW,232,10.0,10.0,48,0.00,,,0.00,Wunderground v.1.15,2013-01-20 17:22:00,
2013-01-20 11:32:00,63.5,42.9,30.22,SW,228,11.0,11.0,47,0.00,,,0.00,Wunderground v.1.15,2013-01-20 17:32:00,
2013-01-20 11:42:00,64.0,42.8,30.21,WSW,246,10.0,11.0,46,0.00,,,0.00,Wunderground v.1.15,2013-01-20 17:42:00,
2013-01-20 11:52:00,63.7,41.9,30.20,SW,235,12.0,13.0,45,0.00,,,0.00,Wunderground v.1.15,2013-01-20 17:52:00,
2013-01-20 11:57:00,63.9,42.7,30.20,SW,236,12.0,12.0,46,0.00,,,0.00,Wunderground v.1.15,2013-01-20 17:57:00,
2013-01-20 12:07:00,64.8,41.8,30.19,SW,236,11.0,14.0,43,0.00,,,0.00,Wunderground v.1.15,2013-01-20 18:07:00,
2013-01-20 12:17:00,64.8,41.8,30.19,SW,224,12.0,12.0,43,0.00,,,0.00,Wunderground v.1.15,2013-01-20 18:17:00,
2013-01-20 12:22:00,65.1,41.4,30.18,SW,215,12.0,13.0,42,0.00,,,0.00,Wunderground v.1.15,2013-01-20 18:22:00,
2013-01-20 12:32:00,65.3,41.6,30.17,SW,214,11.0,12.0,42,0.00,,,0.00,Wunderground v.1.15,2013-01-20 18:32:00,
2013-01-20 12:42:00,65.7,42.0,30.16,WSW,246,9.0,11.0,42,0.00,,,0.00,Wunderground v.1.15,2013-01-20 18:42:00,
2013-01-20 12:52:00,66.1,40.4,30.15,WSW,245,10.0,10.0,39,0.00,,,0.00,Wunderground v.1.15,2013-01-20 18:52:00,
2013-01-20 12:57:00,66.3,39.2,30.15,WSW,243,10.0,10.0,37,0.00,,,0.00,Wunderground v.1.15,2013-01-20 18:57:00,
2013-01-20 13:02:00,66.4,38.6,30.15,SW,232,10.0,15.0,36,0.00,,,0.00,Wunderground v.1.15,2013-01-20 19:02:00,
2013-01-20 13:12:00,66.7,40.3,30.14,WSW,246,10.0,12.0,38,0.00,,,0.00,Wunderground v.1.15,2013-01-20 19:12:00,
2013-01-20 13:22:00,66.9,40.5,30.13,WSW,237,8.0,11.0,38,0.00,,,0.00,Wunderground v.1.15,2013-01-20 19:22:00,
2013-01-20 13:27:00,67.2,40.7,30.13,West,260,7.0,14.0,38,0.00,,,0.00,Wunderground v.1.15,2013-01-20 19:27:00,
2013-01-20 13:37:00,67.8,39.9,30.12,SSW,207,8.0,11.0,36,0.00,,,0.00,Wunderground v.1.15,2013-01-20 19:37:00,
2013-01-20 13:47:00,68.0,40.0,30.12,WSW,256,8.0,11.0,36,0.00,,,0.00,Wunderground v.1.15,2013-01-20 19:47:00,
2013-01-20 13:58:00,68.2,39.5,30.11,SSW,198,7.0,7.0,35,0.00,,,0.00,Wunderground v.1.15,2013-01-20 19:58:00,
2013-01-20 14:07:00,68.5,39.8,30.11,South,187,5.0,5.0,35,0.00,,,0.00,Wunderground v.1.15,2013-01-20 20:07:00,
2013-01-20 14:17:00,69.2,38.1,30.10,SE,144,10.0,10.0,32,0.00,,,0.00,Wunderground v.1.15,2013-01-20 20:17:00,
2013-01-20 14:22:00,69.1,37.2,30.10,SSE,160,12.0,12.0,31,0.00,,,0.00,Wunderground v.1.15,2013-01-20 20:22:00,
2013-01-20 14:32:00,69.1,38.0,30.10,South,189,11.0,12.0,32,0.00,,,0.00,Wunderground v.1.15,2013-01-20 20:32:00,
2013-01-20 14:42:00,69.2,38.1,30.10,SSW,204,10.0,10.0,32,0.00,,,0.00,Wunderground v.1.15,2013-01-20 20:42:00,
2013-01-20 14:52:00,69.3,38.2,30.09,SSW,205,9.0,12.0,32,0.00,,,0.00,Wunderground v.1.15,2013-01-20 20:52:00,
2013-01-20 14:57:00,69.3,37.3,30.09,South,175,10.0,10.0,31,0.00,,,0.00,Wunderground v.1.15,2013-01-20 20:57:00,
2013-01-20 15:07:00,69.5,38.3,30.09,SW,225,9.0,10.0,32,0.00,,,0.00,Wunderground v.1.15,2013-01-20 21:07:00,
2013-01-20 15:12:00,69.6,38.4,30.09,South,175,9.0,10.0,32,0.00,,,0.00,Wunderground v.1.15,2013-01-20 21:12:00,
2013-01-20 15:17:00,69.5,39.1,30.08,SSW,204,9.0,9.0,33,0.00,,,0.00,Wunderground v.1.15,2013-01-20 21:17:00,
2013-01-20 15:27:00,69.8,39.4,30.08,SSW,205,8.0,9.0,33,0.00,,,0.00,Wunderground v.1.15,2013-01-20 21:27:00,
2013-01-20 15:32:00,69.9,40.2,30.08,South,189,9.0,9.0,34,0.00,,,0.00,Wunderground v.1.15,2013-01-20 21:32:00,
2013-01-20 15:37:00,69.7,39.3,30.08,SW,214,10.0,13.0,33,0.00,,,0.00,Wunderground v.1.15,2013-01-20 21:37:00,
2013-01-20 15:47:00,69.7,39.3,30.08,SW,229,8.0,8.0,33,0.00,,,0.00,Wunderground v.1.15,2013-01-20 21:47:00,
2013-01-20 15:57:00,70.1,39.6,30.08,WSW,240,9.0,9.0,33,0.00,,,0.00,Wunderground v.1.15,2013-01-20 21:57:00,
2013-01-20 16:07:00,70.1,38.9,30.08,SSW,194,9.0,14.0,32,0.00,,,0.00,Wunderground v.1.15,2013-01-20 22:07:00,
2013-01-20 16:12:00,69.7,39.3,30.08,South,182,11.0,14.0,33,0.00,,,0.00,Wunderground v.1.15,2013-01-20 22:12:00,
2013-01-20 16:22:00,70.1,39.6,30.08,SSW,193,8.0,10.0,33,0.00,,,0.00,Wunderground v.1.15,2013-01-20 22:22:00,
2013-01-20 16:32:00,70.2,39.7,30.08,SSW,200,9.0,9.0,33,0.00,,,0.00,Wunderground v.1.15,2013-01-20 22:32:00,
2013-01-20 16:42:00,70.3,39.8,30.07,SSE,161,9.0,10.0,33,0.00,,,0.00,Wunderground v.1.15,2013-01-20 22:42:00,
2013-01-20 16:57:00,70.4,39.9,30.07,South,179,7.0,7.0,33,0.00,,,0.00,Wunderground v.1.15,2013-01-20 22:57:00,
2013-01-20 17:02:00,70.2,39.7,30.08,SSW,207,7.0,7.0,33,0.00,,,0.00,Wunderground v.1.15,2013-01-20 23:02:00,
2013-01-20 17:12:00,69.9,39.5,30.08,SW,222,7.0,9.0,33,0.00,,,0.00,Wunderground v.1.15,2013-01-20 23:12:00,
2013-01-20 17:22:00,69.6,39.2,30.08,SSW,203,5.0,6.0,33,0.00,,,0.00,Wunderground v.1.15,2013-01-20 23:22:00,
2013-01-20 17:32:00,68.9,38.6,30.08,SSW,209,5.0,5.0,33,0.00,,,0.00,Wunderground v.1.15,2013-01-20 23:32:00,
2013-01-20 17:37:00,68.6,39.8,30.08,SSW,193,5.0,5.0,35,0.00,,,0.00,Wunderground v.1.15,2013-01-20 23:37:00,
2013-01-20 17:47:00,67.8,39.9,30.08,SSW,205,3.0,3.0,36,0.00,,,0.00,Wunderground v.1.15,2013-01-20 23:47:00,
2013-01-20 17:57:00,67.0,39.1,30.08,SSW,197,3.0,4.0,36,0.00,,,0.00,Wunderground v.1.15,2013-01-20 23:57:00,
2013-01-20 18:02:00,66.6,39.5,30.08,South,191,4.0,4.0,37,0.00,,,0.00,Wunderground v.1.15,2013-01-21 00:02:00,
2013-01-20 18:12:00,65.7,39.4,30.08,South,169,4.0,4.0,38,0.00,,,0.00,Wunderground v.1.15,2013-01-21 00:12:00,
2013-01-20 18:22:00,63.4,39.3,30.08,South,184,2.0,4.0,41,0.00,,,0.00,Wunderground v.1.15,2013-01-21 00:22:00,
2013-01-20 18:32:00,62.5,39.1,30.08,South,184,2.0,2.0,42,0.00,,,0.00,Wunderground v.1.15,2013-01-21 00:32:00,
2013-01-20 18:37:00,62.4,39.6,30.09,SE,144,2.0,2.0,43,0.00,,,0.00,Wunderground v.1.15,2013-01-21 00:37:00,
2013-01-20 18:47:00,61.8,40.2,30.09,SSE,151,2.0,2.0,45,0.00,,,0.00,Wunderground v.1.15,2013-01-21 00:47:00,
2013-01-20 18:57:00,61.8,39.6,30.10,South,182,3.0,4.0,44,0.00,,,0.00,Wunderground v.1.15,2013-01-21 00:57:00,
2013-01-20 19:02:00,61.9,39.7,30.10,South,170,4.0,5.0,44,0.00,,,0.00,Wunderground v.1.15,2013-01-21 01:02:00,
2013-01-20 19:12:00,61.4,41.0,30.10,SSE,168,6.0,6.0,47,0.00,,,0.00,Wunderground v.1.15,2013-01-21 01:12:00,
2013-01-20 19:22:00,60.1,41.4,30.10,SE,142,6.0,6.0,50,0.00,,,0.00,Wunderground v.1.15,2013-01-21 01:22:00,
2013-01-20 19:27:00,59.1,41.5,30.10,SE,132,5.0,5.0,52,0.00,,,0.00,Wunderground v.1.15,2013-01-21 01:27:00,
2013-01-20 19:37:00,59.5,41.9,30.09,SE,137,4.0,4.0,52,0.00,,,0.00,Wunderground v.1.15,2013-01-21 01:37:00,
2013-01-20 19:42:00,58.7,41.6,30.10,SE,138,4.0,4.0,53,0.00,,,0.00,Wunderground v.1.15,2013-01-21 01:42:00,
2013-01-20 19:52:00,57.0,41.4,30.10,SE,144,3.0,3.0,56,0.00,,,0.00,Wunderground v.1.15,2013-01-21 01:52:00,
2013-01-20 20:02:00,56.3,41.7,30.11,SSE,149,3.0,3.0,58,0.00,,,0.00,Wunderground v.1.15,2013-01-21 02:02:00,
2013-01-20 20:12:00,55.9,41.8,30.11,SSE,153,3.0,3.0,59,0.00,,,0.00,Wunderground v.1.15,2013-01-21 02:12:00,
2013-01-20 20:22:00,55.3,41.6,30.11,SSE,153,4.0,5.0,60,0.00,,,0.00,Wunderground v.1.15,2013-01-21 02:22:00,
2013-01-20 20:32:00,54.9,41.7,30.11,SSE,158,5.0,5.0,61,0.00,,,0.00,Wunderground v.1.15,2013-01-21 02:32:00,
2013-01-20 20:42:00,54.2,41.9,30.11,SSE,164,5.0,5.0,63,0.00,,,0.00,Wunderground v.1.15,2013-01-21 02:42:00,
2013-01-20 20:52:00,54.2,42.7,30.11,SSE,153,6.0,7.0,65,0.00,,,0.00,Wunderground v.1.15,2013-01-21 02:52:00,
2013-01-20 20:57:00,54.3,42.8,30.11,SSE,156,6.0,6.0,65,0.00,,,0.00,Wunderground v.1.15,2013-01-21 02:57:00,
2013-01-20 21:07:00,53.6,42.9,30.11,South,173,5.0,5.0,67,0.00,,,0.00,Wunderground v.1.15,2013-01-21 03:07:00,
2013-01-20 21:17:00,53.8,43.1,30.11,SSE,154,3.0,3.0,67,0.00,,,0.00,Wunderground v.1.15,2013-01-21 03:17:00,
2013-01-20 21:27:00,53.4,42.3,30.12,SSW,197,2.0,3.0,66,0.00,,,0.00,Wunderground v.1.15,2013-01-21 03:27:00,
2013-01-20 21:37:00,52.4,42.5,30.12,South,180,3.0,4.0,69,0.00,,,0.00,Wunderground v.1.15,2013-01-21 03:37:00,
2013-01-20 21:42:00,52.0,42.9,30.12,South,170,4.0,5.0,71,0.00,,,0.00,Wunderground v.1.15,2013-01-21 03:42:00,
2013-01-20 21:52:00,52.5,43.7,30.12,South,170,5.0,5.0,72,0.00,,,0.00,Wunderground v.1.15,2013-01-21 03:52:00,
2013-01-20 22:02:00,53.1,43.6,30.12,South,186,3.0,4.0,70,0.00,,,0.00,Wunderground v.1.15,2013-01-21 04:02:00,
2013-01-20 22:07:00,53.5,43.6,30.12,South,182,3.0,4.0,69,0.00,,,0.00,Wunderground v.1.15,2013-01-21 04:07:00,
2013-01-20 22:17:00,53.8,43.5,30.13,SSW,194,5.0,5.0,68,0.00,,,0.00,Wunderground v.1.15,2013-01-21 04:17:00,
2013-01-20 22:22:00,53.7,43.4,30.13,SSW,198,5.0,5.0,68,0.00,,,0.00,Wunderground v.1.15,2013-01-21 04:22:00,
2013-01-20 22:27:00,53.5,43.2,30.13,SSW,203,5.0,5.0,68,0.00,,,0.00,Wunderground v.1.15,2013-01-21 04:27:00,
2013-01-20 22:37:00,53.2,43.3,30.13,SSW,205,6.0,6.0,69,0.00,,,0.00,Wunderground v.1.15,2013-01-21 04:37:00,
2013-01-20 22:47:00,52.4,43.3,30.13,SSW,205,5.0,5.0,71,0.00,,,0.00,Wunderground v.1.15,2013-01-21 04:47:00,
2013-01-20 22:57:00,51.9,43.2,30.13,SW,214,4.0,4.0,72,0.00,,,0.00,Wunderground v.1.15,2013-01-21 04:57:00,
2013-01-20 23:07:00,52.9,44.1,30.13,SW,227,5.0,5.0,72,0.00,,,0.00,Wunderground v.1.15,2013-01-21 05:07:00,
2013-01-20 23:17:00,53.1,44.3,30.13,SSW,210,5.0,6.0,72,0.00,,,0.00,Wunderground v.1.15,2013-01-21 05:17:00,
2013-01-20 23:22:00,53.3,44.5,30.13,SSW,210,6.0,7.0,72,0.00,,,0.00,Wunderground v.1.15,2013-01-21 05:22:00,
2013-01-20 23:27:00,53.6,44.4,30.13,SSW,210,6.0,6.0,71,0.00,,,0.00,Wunderground v.1.15,2013-01-21 05:27:00,
2013-01-20 23:32:00,53.5,44.3,30.13,SW,219,6.0,6.0,71,0.00,,,0.00,Wunderground v.1.15,2013-01-21 05:32:00,
2013-01-20 23:42:00,53.5,44.7,30.13,SSW,208,6.0,6.0,72,0.00,,,0.00,Wunderground v.1.15,2013-01-21 05:42:00,
2013-01-20 23:52:00,53.1,44.3,30.13,SSW,201,6.0,6.0,72,0.00,,,0.00,Wunderground v.1.15,2013-01-21 05:52:00,
2013-01-20 23:57:00,52.8,44.4,30.13,SSW,207,6.0,6.0,73,0.00,,,0.00,Wunderground v.1.15,2013-01-21 05:57:00,